Tracking 29487 objects as of 11-Sep-2024
HD Live streaming from Space Station
objects crossing your sky now

FENGYUN 1C DEB

Track FENGYUN 1C DEB now!
10-day predictions


NORAD ID: 30816
Int'l Code: 1999-025AVA
Perigee: 815.7 km
Apogee: 897.2 km
Inclination: 98.9 °
Period: 101.9 minutes
Semi major axis: 7227 km
RCS: 0.037 m2 (small)
Launch date: May 10, 1999
Source: People's Republic of China (PRC)
Launch site: Taiyaun Space Center, China (TSC)

Note: This is SATELLITE DEBRIS
Your satellite tracking list
Your tracking list is empty




NASA's NSSDC Master Catalog

Two Line Element Set (TLE):
1 30816U 99025AVA 24255.07131392  .00009152  00000-0  48582-2 0  9993
2 30816  98.9469 318.5366 0056369 273.7420 156.2432 14.12943780899346
Source of the keplerian elements: AFSPC